This is the latest recevied weather packets stored in our database for station/object KB1FPD. If no packets are shown the sender has not sent any weather packets the latest 10 day(s).
| Time | Temp. | Humidity | Pressure | Rain* | Wind** | Luminosity | Snow |
|---|---|---|---|---|---|---|---|
| 1777887506 | 8.33° C | 58% | 1014.6 hPa | 0 mm | - | - | - |
| 1777887208 | 8.33° C | 60% | 1014.6 hPa | 0 mm | - | - | - |
| 1777886903 | 8.33° C | 60% | 1014.6 hPa | 0 mm | - | - | - |
| 1777886603 | 8.33° C | 58% | 1014.6 hPa | 0 mm | - | - | - |
| 1777886303 | 8.33° C | 59% | 1014.6 hPa | 0 mm | - | - | - |
| 1777886003 | 8.33° C | 57% | 1014.6 hPa | 0 mm | - | - | - |
| 1777885703 | 8.33° C | 60% | 1014.7 hPa | 0 mm | - | - | - |
| 1777885401 | 8.33° C | 59% | 1014.6 hPa | 0 mm | - | - | - |
| 1777885109 | 8.33° C | 58% | 1014.6 hPa | 0 mm | - | - | - |
| 1777884803 | 8.33° C | 58% | 1014.6 hPa | 0 mm | - | - | - |
| 1777884504 | 8.33° C | 61% | 1014.6 hPa | 0 mm | - | - | - |
| 1777884208 | 8.33° C | 59% | 1014.7 hPa | 0 mm | - | - | - |
| 1777883905 | 8.33° C | 59% | 1014.6 hPa | 0 mm | - | - | - |
| 1777883602 | 8.33° C | 59% | 1014.6 hPa | 0 mm | - | - | - |
| 1777883296 | 8.33° C | 57% | 1014.7 hPa | 0 mm | - | - | - |
| 1777882999 | 8.33° C | 60% | 1014.7 hPa | 0 mm | - | - | - |
| 1777882698 | 8.33° C | 64% | 1014.8 hPa | 0 mm | - | - | - |
| 1777882398 | 8.33° C | 59% | 1014.7 hPa | 0 mm | - | - | - |
| 1777882104 | 8.33° C | 57% | 1014.7 hPa | 0 mm | - | - | - |
| 1777881797 | 7.78° C | 58% | 1014.6 hPa | 0 mm | - | - | - |
| 1777881495 | 7.78° C | 58% | 1014.8 hPa | 0 mm | - | - | - |
| 1777881195 | 7.78° C | 60% | 1014.8 hPa | 0 mm | - | - | - |
| 1777880895 | 7.22° C | 62% | 1014.8 hPa | 0 mm | - | - | - |
| 1777880599 | 7.22° C | 68% | 1014.8 hPa | 0 mm | - | - | - |
| 1777880293 | 7.22° C | 65% | 1014.9 hPa | 0 mm | - | - | - |
* Rain latest hour (hover to see other rain measurements)
** Current wind speed in m/s (hover to see current wind gust speed)